Miscellaneous Local Product
Issued by NWS Hastings, NE

Home | Current Version | Previous Version | Graphics & Text | Print | Product List | Glossary On
Versions: 1 2 3 4 5 6 7 8 9 10 11 12 13 14 15 16 17 18 19 20 21 22 23 24 25 26 27 28 29 30 31 32 33 34 35 36 37 38 39 40 41 42 43 44 45 46 47 48 49 50
000
AXUS43 KGID 210802
MISGRI

GID CWA HOURLY WEATHER ROUNDUP
NATIONAL WEATHER SERVICE HASTINGS NE
200 AM CST SAT JAN 21 2017

NOTE: "FAIR" INDICATES FEW OR NO CLOUDS BELOW 12,000 FEET WITH NO
SIGNIFICANT WEATHER AND/OR OBSTRUCTIONS TO VISIBILITY.

...SOUTH CENTRAL NEBRASKA...

CITY           SKY/WX    TMP DP  RH WIND       PRES   REMARKS
GRAND ISLAND   PTCLDY    34  34 100 W8        29.38R WCI  27
HASTINGS       MOCLDY    35  33  92 SW5       29.39S WCI  31
KEARNEY        CLOUDY    34 N/A N/A W7        29.39R WCI  28
ORD            CLOUDY    35  33  92 CALM      29.35S
YORK           CLOUDY    37  37 100 SW6       29.39R WCI  33
AURORA         PTCLDY    34  34 100 SW7       29.38S FOG     WCI  28
LEXINGTON      CLOUDY    34  32  92 W5        29.39S WCI  30
HOLDREGE       CLOUDY    34  33  96 W7        29.40S WCI  28
HEBRON         FOG       37  37 100 W6        29.41S VSB 3/4 WCI  33

...NEBRASKA PANHANDLE...

CITY           SKY/WX    TMP DP  RH WIND       PRES   REMARKS
CHADRON        CLOUDY    34  31  88 W9        29.38S WCI  27
ALLIANCE       CLOUDY    27  25  92 W8        29.37F WCI  19
SCOTTSBLUFF    CLEAR     28  22  78 NW5       29.40S WCI  23
SIDNEY         CLEAR     28  21  75 W9        29.40S WCI  19

...WESTERN AND NORTH CENTRAL NEBRASKA...

CITY           SKY/WX    TMP DP  RH WIND       PRES   REMARKS
VALENTINE      PTCLDY    31  27  85 W7        29.33F WCI  24
AINSWORTH      CLOUDY    32  31  95 W8        29.34R WCI  25
ONEILL         CLOUDY    34  34 100 W5        29.34F WCI  30
BROKEN BOW     CLOUDY    36  33  89 W8        29.36S WCI  30
IMPERIAL       CLEAR     32  30  92 W9        29.42S WCI  24
NORTH PLATTE   PTCLDY    31  30  96 CALM      29.39F
MCCOOK         CLEAR     32  31  96 SW7       29.42F WCI  26

...EASTERN NEBRASKA...

CITY           SKY/WX    TMP DP  RH WIND       PRES   REMARKS
NORFOLK        CLOUDY    37  37 100 S7        29.35S FOG     WCI  32
SO SIOUX CITY  LGT RAIN  39  39 100 SE5       29.38S VSB 1/4
TEKAMAH        FOG       37  36  96 CALM      29.38F VSB 1/4
COLUMBUS       CLOUDY    39  37  93 SW5       29.38S
ALBION         CLOUDY   N/A N/A N/A W3        29.35S HAZE
OMAHA EPPLEY   CLOUDY    40  37  89 S3        29.39S FOG
MILLARD        FOG       42  41  97 CALM      29.38F VSB 1/2
LINCOLN        FOG       40  40 100 SW6       29.41R VSB 3/4
NEBRASKA CITY  FOG       41  41 100 SW7       29.40S VSB 1/2
BEATRICE       FOG       40  40 100 W5        29.40F VSB 1/2
FALLS CITY     CLOUDY    45  44  97 SW7       29.41R FOG

...NORTHERN KANSAS...

CITY           SKY/WX    TMP DP  RH WIND       PRES   REMARKS
GOODLAND       CLEAR     28  26  92 W5        29.43F WCI  23
HILL CITY      CLEAR     35  33  92 W10       29.44S WCI  27
NORTON         SUNNY     36  30  80 W12       29.42S WCI  27
PHILLIPSBURG   CLEAR     36  36 100 W5        29.43S WCI  32
SMITH CENTER   CLOUDY    34  34 100 W5        29.43F FOG     WCI  30
HAYS           CLEAR     33  31  92 W10       29.45F WCI  25
RUSSELL        CLEAR     34  33  96 W9        29.43F WCI  27
CONCORDIA      CLOUDY    41  40  96 SW7       29.42S
SALINA           N/A    N/A N/A N/A MISG        N/A
TOPEKA         PTCLDY    41  38  89 SW5       29.43S



USA.gov is the U.S. government's official web portal to all federal, state and local government web resources and services.